Location: Avoca
(45.7167°N, 74.7000°W)
Time: 08:10:06
(UTC+00:00)

Tiangong - Visible Passes

Search period start: 26 May 2024 00:00
Search period end: 05 June 2024 00:00
Orbit: 370 x 373 km, 41.5° (Epoch: 26 May)

Date Brightness Start Highest point End Pass type
(mag) Time Alt. Az. Time Alt. Az. Time Alt. Az.
26 May -0.9 07:37:18 24° S 07:37:48 25° SSE 07:40:24 10° ESE visible
27 May 0.6 06:36:13 11° ESE 06:36:13 11° ESE 06:36:21 10° ESE visible
27 May -1.4 08:08:08 15° WSW 08:10:15 35° S 08:13:06 10° ESE visible
28 May -1.0 07:07:00 28° SSE 07:07:00 28° SSE 07:09:11 10° ESE visible
29 May -1.6 07:37:45 28° SW 07:38:45 36° S 07:41:37 10° ESE visible
30 May -0.1 06:36:36 17° ESE 06:36:36 17° ESE 06:37:35 10° ESE visible
30 May -1.3 08:08:31 12° WSW 08:10:57 31° S 08:13:43 10° SE visible
31 May -1.3 07:07:28 32° SSE 07:07:28 32° SSE 07:09:45 10° ESE visible
01 Jun -1.2 07:38:30 26° SSW 07:38:54 26° SSW 07:41:33 10° SE visible
02 Jun -0.4 08:09:54 14° SW 08:10:42 15° SSW 08:12:33 10° SSE visible
